#datetime,building,power
2023-08-27T00:00:00,rvs,11.10
2023-08-27T00:01:00,rvs,11.38
2023-08-27T00:02:00,rvs,11.42
2023-08-27T00:03:00,rvs,11.25
2023-08-27T00:04:00,rvs,11.35
2023-08-27T00:05:00,rvs,11.29
2023-08-27T00:06:00,rvs,11.24
2023-08-27T00:07:00,rvs,11.36
2023-08-27T00:08:00,rvs,13.36
2023-08-27T00:09:00,rvs,13.65
2023-08-27T00:10:00,rvs,13.93
2023-08-27T00:11:00,rvs,14.13
2023-08-27T00:12:00,rvs,14.85
2023-08-27T00:13:00,rvs,15.61
2023-08-27T00:14:00,rvs,15.72
2023-08-27T00:15:00,rvs,15.64
2023-08-27T00:16:00,rvs,16.12
2023-08-27T00:17:00,rvs,16.59
2023-08-27T00:18:00,rvs,16.46
2023-08-27T00:19:00,rvs,16.52
2023-08-27T00:20:00,rvs,11.22
2023-08-27T00:21:00,rvs,11.60
2023-08-27T00:22:00,rvs,11.64
2023-08-27T00:23:00,rvs,11.73
2023-08-27T00:24:00,rvs,13.07
2023-08-27T00:25:00,rvs,15.73
2023-08-27T00:26:00,rvs,16.28
2023-08-27T00:27:00,rvs,16.81
2023-08-27T00:28:00,rvs,16.59
2023-08-27T00:29:00,rvs,17.47
2023-08-27T00:30:00,rvs,19.41
2023-08-27T00:31:00,rvs,16.77
2023-08-27T00:32:00,rvs,17.14
2023-08-27T00:33:00,rvs,17.46
2023-08-27T00:34:00,rvs,18.10
2023-08-27T00:35:00,rvs,18.85
2023-08-27T00:36:00,rvs,14.96
2023-08-27T00:37:00,rvs,15.09
2023-08-27T00:38:00,rvs,15.16
2023-08-27T00:39:00,rvs,15.81
2023-08-27T00:40:00,rvs,15.21
2023-08-27T00:41:00,rvs,15.00
2023-08-27T00:42:00,rvs,15.11
2023-08-27T00:43:00,rvs,15.27
2023-08-27T00:44:00,rvs,11.25
2023-08-27T00:45:00,rvs,11.18
2023-08-27T00:46:00,rvs,11.32
2023-08-27T00:47:00,rvs,15.74
2023-08-27T00:48:00,rvs,16.32
2023-08-27T00:49:00,rvs,12.17
2023-08-27T00:50:00,rvs,16.23
2023-08-27T00:51:00,rvs,13.04
2023-08-27T00:52:00,rvs,17.27
2023-08-27T00:53:00,rvs,17.25
2023-08-27T00:54:00,rvs,12.59
2023-08-27T00:55:00,rvs,16.76
2023-08-27T00:56:00,rvs,16.86
2023-08-27T00:57:00,rvs,12.71
2023-08-27T00:58:00,rvs,16.80
2023-08-27T00:59:00,rvs,16.84
2023-08-27T01:00:00,rvs,12.72
2023-08-27T01:01:00,rvs,16.64
2023-08-27T01:02:00,rvs,16.72
2023-08-27T01:03:00,rvs,12.59
2023-08-27T01:04:00,rvs,16.68
2023-08-27T01:05:00,rvs,16.59
2023-08-27T01:06:00,rvs,12.43
2023-08-27T01:07:00,rvs,16.68
2023-08-27T01:08:00,rvs,16.63
2023-08-27T01:09:00,rvs,12.37
2023-08-27T01:10:00,rvs,16.12
2023-08-27T01:11:00,rvs,16.05
2023-08-27T01:12:00,rvs,11.95
2023-08-27T01:13:00,rvs,16.03
2023-08-27T01:14:00,rvs,16.47
2023-08-27T01:15:00,rvs,12.24
2023-08-27T01:16:00,rvs,16.90
2023-08-27T01:17:00,rvs,16.51
2023-08-27T01:18:00,rvs,12.00
2023-08-27T01:19:00,rvs,16.09
2023-08-27T01:20:00,rvs,15.68
2023-08-27T01:21:00,rvs,13.71
2023-08-27T01:22:00,rvs,18.06
2023-08-27T01:23:00,rvs,18.48
2023-08-27T01:24:00,rvs,16.18
2023-08-27T01:25:00,rvs,21.00
2023-08-27T01:26:00,rvs,17.97
2023-08-27T01:27:00,rvs,14.37
2023-08-27T01:28:00,rvs,18.86
2023-08-27T01:29:00,rvs,19.66
2023-08-27T01:30:00,rvs,16.15
2023-08-27T01:31:00,rvs,21.06
2023-08-27T01:32:00,rvs,16.58
2023-08-27T01:33:00,rvs,16.20
2023-08-27T01:34:00,rvs,11.60
2023-08-27T01:35:00,rvs,15.63
2023-08-27T01:36:00,rvs,11.47
2023-08-27T01:37:00,rvs,15.45
2023-08-27T01:38:00,rvs,11.45
2023-08-27T01:39:00,rvs,11.56
2023-08-27T01:40:00,rvs,15.64
2023-08-27T01:41:00,rvs,12.23
2023-08-27T01:42:00,rvs,11.81
2023-08-27T01:43:00,rvs,11.80
2023-08-27T01:44:00,rvs,12.19
2023-08-27T01:45:00,rvs,11.97
2023-08-27T01:46:00,rvs,11.99
2023-08-27T01:47:00,rvs,11.79
2023-08-27T01:48:00,rvs,11.64
2023-08-27T01:49:00,rvs,11.59
2023-08-27T01:50:00,rvs,11.50
2023-08-27T01:51:00,rvs,11.42
2023-08-27T01:52:00,rvs,11.50
2023-08-27T01:53:00,rvs,11.41
2023-08-27T01:54:00,rvs,11.52
2023-08-27T01:55:00,rvs,11.14
2023-08-27T01:56:00,rvs,11.19
2023-08-27T01:57:00,rvs,11.09
2023-08-27T01:58:00,rvs,11.00
2023-08-27T01:59:00,rvs,11.27
2023-08-27T02:00:00,rvs,11.47
2023-08-27T02:01:00,rvs,11.35
2023-08-27T02:02:00,rvs,10.82
2023-08-27T02:03:00,rvs,10.82
2023-08-27T02:04:00,rvs,10.83
2023-08-27T02:05:00,rvs,10.79
2023-08-27T02:06:00,rvs,10.72
2023-08-27T02:07:00,rvs,10.65
2023-08-27T02:08:00,rvs,10.61
2023-08-27T02:09:00,rvs,10.60
2023-08-27T02:10:00,rvs,11.04
2023-08-27T02:11:00,rvs,10.97
2023-08-27T02:12:00,rvs,11.14
2023-08-27T02:13:00,rvs,13.60
2023-08-27T02:14:00,rvs,13.62
2023-08-27T02:15:00,rvs,12.84
2023-08-27T02:16:00,rvs,12.89
2023-08-27T02:17:00,rvs,14.28
2023-08-27T02:18:00,rvs,11.85
2023-08-27T02:19:00,rvs,11.93
2023-08-27T02:20:00,rvs,11.88
2023-08-27T02:21:00,rvs,12.02
2023-08-27T02:22:00,rvs,11.96
2023-08-27T02:23:00,rvs,12.03
2023-08-27T02:24:00,rvs,13.50
2023-08-27T02:25:00,rvs,13.81
2023-08-27T02:26:00,rvs,14.06
2023-08-27T02:27:00,rvs,14.71
2023-08-27T02:28:00,rvs,14.95
2023-08-27T02:29:00,rvs,28.12
2023-08-27T02:30:00,rvs,27.67
2023-08-27T02:31:00,rvs,27.44
2023-08-27T02:32:00,rvs,27.28
2023-08-27T02:33:00,rvs,14.84
2023-08-27T02:34:00,rvs,15.05
2023-08-27T02:35:00,rvs,15.34
2023-08-27T02:36:00,rvs,15.47
2023-08-27T02:37:00,rvs,12.27
2023-08-27T02:38:00,rvs,13.44
2023-08-27T02:39:00,rvs,13.59
2023-08-27T02:40:00,rvs,13.78
2023-08-27T02:41:00,rvs,14.11
2023-08-27T02:42:00,rvs,15.05
2023-08-27T02:43:00,rvs,15.65
2023-08-27T02:44:00,rvs,15.39
2023-08-27T02:45:00,rvs,15.25
2023-08-27T02:46:00,rvs,15.12
2023-08-27T02:47:00,rvs,14.98
2023-08-27T02:48:00,rvs,10.95
2023-08-27T02:49:00,rvs,10.97
2023-08-27T02:50:00,rvs,11.11
2023-08-27T02:51:00,rvs,11.10
2023-08-27T02:52:00,rvs,11.22
2023-08-27T02:53:00,rvs,11.15
2023-08-27T02:54:00,rvs,11.21
2023-08-27T02:55:00,rvs,11.03
2023-08-27T02:56:00,rvs,11.09
2023-08-27T02:57:00,rvs,11.03
2023-08-27T02:58:00,rvs,11.12
2023-08-27T02:59:00,rvs,11.55
2023-08-27T03:00:00,rvs,11.45
2023-08-27T03:01:00,rvs,11.40
2023-08-27T03:02:00,rvs,11.38
2023-08-27T03:03:00,rvs,11.43
2023-08-27T03:04:00,rvs,11.97
2023-08-27T03:05:00,rvs,13.21
2023-08-27T03:06:00,rvs,13.56
2023-08-27T03:07:00,rvs,13.18
2023-08-27T03:08:00,rvs,12.38
2023-08-27T03:09:00,rvs,12.27
2023-08-27T03:10:00,rvs,12.45
2023-08-27T03:11:00,rvs,12.75
2023-08-27T03:12:00,rvs,12.96
2023-08-27T03:13:00,rvs,13.14
2023-08-27T03:14:00,rvs,13.25
2023-08-27T03:15:00,rvs,13.14
2023-08-27T03:16:00,rvs,12.88
2023-08-27T03:17:00,rvs,12.67
2023-08-27T03:18:00,rvs,12.69
2023-08-27T03:19:00,rvs,14.76
2023-08-27T03:20:00,rvs,15.02
2023-08-27T03:21:00,rvs,14.63
2023-08-27T03:22:00,rvs,14.80
2023-08-27T03:23:00,rvs,14.20
2023-08-27T03:24:00,rvs,11.22
2023-08-27T03:25:00,rvs,11.16
2023-08-27T03:26:00,rvs,11.14
2023-08-27T03:27:00,rvs,11.15
2023-08-27T03:28:00,rvs,11.25
2023-08-27T03:29:00,rvs,11.25
2023-08-27T03:30:00,rvs,11.30
2023-08-27T03:31:00,rvs,11.42
2023-08-27T03:32:00,rvs,11.42
2023-08-27T03:33:00,rvs,11.42
2023-08-27T03:34:00,rvs,11.29
2023-08-27T03:35:00,rvs,12.11
2023-08-27T03:36:00,rvs,11.82
2023-08-27T03:37:00,rvs,11.87
2023-08-27T03:38:00,rvs,11.79
2023-08-27T03:39:00,rvs,11.98
2023-08-27T03:40:00,rvs,11.46
2023-08-27T03:41:00,rvs,10.83
2023-08-27T03:42:00,rvs,10.89
2023-08-27T03:43:00,rvs,10.84
2023-08-27T03:44:00,rvs,10.85
2023-08-27T03:45:00,rvs,10.93
2023-08-27T03:46:00,rvs,10.99
2023-08-27T03:47:00,rvs,10.90
2023-08-27T03:48:00,rvs,10.95
2023-08-27T03:49:00,rvs,10.88
2023-08-27T03:50:00,rvs,11.28
2023-08-27T03:51:00,rvs,11.93
2023-08-27T03:52:00,rvs,11.42
2023-08-27T03:53:00,rvs,11.43
2023-08-27T03:54:00,rvs,11.30
2023-08-27T03:55:00,rvs,11.24
2023-08-27T03:56:00,rvs,11.28
2023-08-27T03:57:00,rvs,11.31
2023-08-27T03:58:00,rvs,11.32
2023-08-27T03:59:00,rvs,11.36
2023-08-27T04:00:00,rvs,11.17
2023-08-27T04:01:00,rvs,11.38
2023-08-27T04:02:00,rvs,11.35
2023-08-27T04:03:00,rvs,11.33
2023-08-27T04:04:00,rvs,11.26
2023-08-27T04:05:00,rvs,11.28
2023-08-27T04:06:00,rvs,11.24
2023-08-27T04:07:00,rvs,11.21
2023-08-27T04:08:00,rvs,11.19
2023-08-27T04:09:00,rvs,10.68
2023-08-27T04:10:00,rvs,10.63
2023-08-27T04:11:00,rvs,10.66
2023-08-27T04:12:00,rvs,10.89
2023-08-27T04:13:00,rvs,11.20
2023-08-27T04:14:00,rvs,11.06
2023-08-27T04:15:00,rvs,10.45
2023-08-27T04:16:00,rvs,10.44
2023-08-27T04:17:00,rvs,10.43
2023-08-27T04:18:00,rvs,12.47
2023-08-27T04:19:00,rvs,12.35
2023-08-27T04:20:00,rvs,12.13
2023-08-27T04:21:00,rvs,11.54
2023-08-27T04:22:00,rvs,11.40
2023-08-27T04:23:00,rvs,11.54
2023-08-27T04:24:00,rvs,11.72
2023-08-27T04:25:00,rvs,11.78
2023-08-27T04:26:00,rvs,11.91
2023-08-27T04:27:00,rvs,11.96
2023-08-27T04:28:00,rvs,11.88
2023-08-27T04:29:00,rvs,11.89
2023-08-27T04:30:00,rvs,12.05
2023-08-27T04:31:00,rvs,12.03
2023-08-27T04:32:00,rvs,10.82
2023-08-27T04:33:00,rvs,10.83
2023-08-27T04:34:00,rvs,10.85
2023-08-27T04:35:00,rvs,10.79
2023-08-27T04:36:00,rvs,10.85
2023-08-27T04:37:00,rvs,11.52
2023-08-27T04:38:00,rvs,11.27
2023-08-27T04:39:00,rvs,11.45
2023-08-27T04:40:00,rvs,11.38
2023-08-27T04:41:00,rvs,11.79
2023-08-27T04:42:00,rvs,11.81
2023-08-27T04:43:00,rvs,14.13
2023-08-27T04:44:00,rvs,13.76
2023-08-27T04:45:00,rvs,13.09
2023-08-27T04:46:00,rvs,13.33
2023-08-27T04:47:00,rvs,16.12
2023-08-27T04:48:00,rvs,13.65
2023-08-27T04:49:00,rvs,14.19
2023-08-27T04:50:00,rvs,14.74
2023-08-27T04:51:00,rvs,15.43
2023-08-27T04:52:00,rvs,15.10
2023-08-27T04:53:00,rvs,15.26
2023-08-27T04:54:00,rvs,15.52
2023-08-27T04:55:00,rvs,17.36
2023-08-27T04:56:00,rvs,17.99
2023-08-27T04:57:00,rvs,17.82
2023-08-27T04:58:00,rvs,13.88
2023-08-27T04:59:00,rvs,14.38
2023-08-27T05:00:00,rvs,14.86
2023-08-27T05:01:00,rvs,14.59
2023-08-27T05:02:00,rvs,14.80
2023-08-27T05:03:00,rvs,14.63
2023-08-27T05:04:00,rvs,14.49
2023-08-27T05:05:00,rvs,14.50
2023-08-27T05:06:00,rvs,14.85
2023-08-27T05:07:00,rvs,14.66
2023-08-27T05:08:00,rvs,14.36
2023-08-27T05:09:00,rvs,10.75
2023-08-27T05:10:00,rvs,10.72
2023-08-27T05:11:00,rvs,10.83
2023-08-27T05:12:00,rvs,10.79
2023-08-27T05:13:00,rvs,10.80
2023-08-27T05:14:00,rvs,10.77
2023-08-27T05:15:00,rvs,10.83
2023-08-27T05:16:00,rvs,23.88
2023-08-27T05:17:00,rvs,23.53
2023-08-27T05:18:00,rvs,23.88
2023-08-27T05:19:00,rvs,11.44
2023-08-27T05:20:00,rvs,11.42
2023-08-27T05:21:00,rvs,11.25
2023-08-27T05:22:00,rvs,11.27
2023-08-27T05:23:00,rvs,11.59
2023-08-27T05:24:00,rvs,12.08
2023-08-27T05:25:00,rvs,12.21
2023-08-27T05:26:00,rvs,12.15
2023-08-27T05:27:00,rvs,11.34
2023-08-27T05:28:00,rvs,11.27
2023-08-27T05:29:00,rvs,11.20
2023-08-27T05:30:00,rvs,10.72
2023-08-27T05:31:00,rvs,10.68
2023-08-27T05:32:00,rvs,11.28
2023-08-27T05:33:00,rvs,11.10
2023-08-27T05:34:00,rvs,11.22
2023-08-27T05:35:00,rvs,11.28
2023-08-27T05:36:00,rvs,11.36
2023-08-27T05:37:00,rvs,11.40
2023-08-27T05:38:00,rvs,11.39
2023-08-27T05:39:00,rvs,11.41
2023-08-27T05:40:00,rvs,11.33
2023-08-27T05:41:00,rvs,11.26
2023-08-27T05:42:00,rvs,11.24
2023-08-27T05:43:00,rvs,11.28
2023-08-27T05:44:00,rvs,11.23
2023-08-27T05:45:00,rvs,11.26
2023-08-27T05:46:00,rvs,11.26
2023-08-27T05:47:00,rvs,11.34
2023-08-27T05:48:00,rvs,11.36
2023-08-27T05:49:00,rvs,11.43
2023-08-27T05:50:00,rvs,11.42
2023-08-27T05:51:00,rvs,11.00
2023-08-27T05:52:00,rvs,10.98
2023-08-27T05:53:00,rvs,11.06
2023-08-27T05:54:00,rvs,11.22
2023-08-27T05:55:00,rvs,11.28
2023-08-27T05:56:00,rvs,11.80
2023-08-27T05:57:00,rvs,11.64
2023-08-27T05:58:00,rvs,11.58
2023-08-27T05:59:00,rvs,11.39
2023-08-27T06:00:00,rvs,11.29
2023-08-27T06:01:00,rvs,11.30
2023-08-27T06:02:00,rvs,10.83
2023-08-27T06:03:00,rvs,10.78
2023-08-27T06:04:00,rvs,10.84
2023-08-27T06:05:00,rvs,10.82
2023-08-27T06:06:00,rvs,10.72
2023-08-27T06:07:00,rvs,10.70
2023-08-27T06:08:00,rvs,10.68
2023-08-27T06:09:00,rvs,10.83
2023-08-27T06:10:00,rvs,10.84
2023-08-27T06:11:00,rvs,10.88
2023-08-27T06:12:00,rvs,10.83
2023-08-27T06:13:00,rvs,10.89
2023-08-27T06:14:00,rvs,10.93
2023-08-27T06:15:00,rvs,10.86
2023-08-27T06:16:00,rvs,10.85
2023-08-27T06:17:00,rvs,10.75
2023-08-27T06:18:00,rvs,10.40
2023-08-27T06:19:00,rvs,10.39
2023-08-27T06:20:00,rvs,10.37
2023-08-27T06:21:00,rvs,11.04
2023-08-27T06:22:00,rvs,10.46
2023-08-27T06:23:00,rvs,10.90
2023-08-27T06:24:00,rvs,10.87
2023-08-27T06:25:00,rvs,10.86
2023-08-27T06:26:00,rvs,10.76
2023-08-27T06:27:00,rvs,10.77
2023-08-27T06:28:00,rvs,10.82
2023-08-27T06:29:00,rvs,10.94
2023-08-27T06:30:00,rvs,11.42
2023-08-27T06:31:00,rvs,11.38
2023-08-27T06:32:00,rvs,10.85
2023-08-27T06:33:00,rvs,10.71
2023-08-27T06:34:00,rvs,11.48
2023-08-27T06:35:00,rvs,11.40
2023-08-27T06:36:00,rvs,11.44
2023-08-27T06:37:00,rvs,11.38
2023-08-27T06:38:00,rvs,11.31
2023-08-27T06:39:00,rvs,12.54
2023-08-27T06:40:00,rvs,15.90
2023-08-27T06:41:00,rvs,16.53
2023-08-27T06:42:00,rvs,15.75
2023-08-27T06:43:00,rvs,16.69
2023-08-27T06:44:00,rvs,17.68
2023-08-27T06:45:00,rvs,15.97
2023-08-27T06:46:00,rvs,15.50
2023-08-27T06:47:00,rvs,16.42
2023-08-27T06:48:00,rvs,15.76
2023-08-27T06:49:00,rvs,15.70
2023-08-27T06:50:00,rvs,10.61
2023-08-27T06:51:00,rvs,10.66
2023-08-27T06:52:00,rvs,10.84
2023-08-27T06:53:00,rvs,10.90
2023-08-27T06:54:00,rvs,10.80
2023-08-27T06:55:00,rvs,10.79
2023-08-27T06:56:00,rvs,10.83
2023-08-27T06:57:00,rvs,10.94
2023-08-27T06:58:00,rvs,11.01
2023-08-27T06:59:00,rvs,10.90
2023-08-27T07:00:00,rvs,10.77
2023-08-27T07:01:00,rvs,10.84
2023-08-27T07:02:00,rvs,10.67
2023-08-27T07:03:00,rvs,11.21
2023-08-27T07:04:00,rvs,11.13
2023-08-27T07:05:00,rvs,10.56
2023-08-27T07:06:00,rvs,10.68
2023-08-27T07:07:00,rvs,10.52
2023-08-27T07:08:00,rvs,10.66
2023-08-27T07:09:00,rvs,11.14
2023-08-27T07:10:00,rvs,10.70
2023-08-27T07:11:00,rvs,10.69
2023-08-27T07:12:00,rvs,10.97
2023-08-27T07:13:00,rvs,10.94
2023-08-27T07:14:00,rvs,11.32
2023-08-27T07:15:00,rvs,11.23
2023-08-27T07:16:00,rvs,11.16
2023-08-27T07:17:00,rvs,11.14
2023-08-27T07:18:00,rvs,11.21
2023-08-27T07:19:00,rvs,11.35
2023-08-27T07:20:00,rvs,11.63
2023-08-27T07:21:00,rvs,11.76
2023-08-27T07:22:00,rvs,11.90
2023-08-27T07:23:00,rvs,11.91
2023-08-27T07:24:00,rvs,16.16
2023-08-27T07:25:00,rvs,15.46
2023-08-27T07:26:00,rvs,15.48
2023-08-27T07:27:00,rvs,15.40
2023-08-27T07:28:00,rvs,19.62
2023-08-27T07:29:00,rvs,19.60
2023-08-27T07:30:00,rvs,19.77
2023-08-27T07:31:00,rvs,19.53
2023-08-27T07:32:00,rvs,19.72
2023-08-27T07:33:00,rvs,19.31
2023-08-27T07:34:00,rvs,19.46
2023-08-27T07:35:00,rvs,19.24
2023-08-27T07:36:00,rvs,19.25
2023-08-27T07:37:00,rvs,15.22
2023-08-27T07:38:00,rvs,19.25
2023-08-27T07:39:00,rvs,15.22
2023-08-27T07:40:00,rvs,19.24
2023-08-27T07:41:00,rvs,19.56
2023-08-27T07:42:00,rvs,15.68
2023-08-27T07:43:00,rvs,19.67
2023-08-27T07:44:00,rvs,15.21
2023-08-27T07:45:00,rvs,19.65
2023-08-27T07:46:00,rvs,19.58
2023-08-27T07:47:00,rvs,15.80
2023-08-27T07:48:00,rvs,19.86
2023-08-27T07:49:00,rvs,15.96
2023-08-27T07:50:00,rvs,33.13
2023-08-27T07:51:00,rvs,28.96
2023-08-27T07:52:00,rvs,24.31
2023-08-27T07:53:00,rvs,28.09
2023-08-27T07:54:00,rvs,15.51
2023-08-27T07:55:00,rvs,19.41
2023-08-27T07:56:00,rvs,11.36
2023-08-27T07:57:00,rvs,15.36
2023-08-27T07:58:00,rvs,15.31
2023-08-27T07:59:00,rvs,11.18
2023-08-27T08:00:00,rvs,19.13
2023-08-27T08:01:00,rvs,15.13
2023-08-27T08:02:00,rvs,19.20
2023-08-27T08:03:00,rvs,11.21
2023-08-27T08:04:00,rvs,15.25
2023-08-27T08:05:00,rvs,11.25
2023-08-27T08:06:00,rvs,19.88
2023-08-27T08:07:00,rvs,19.73
2023-08-27T08:08:00,rvs,15.76
2023-08-27T08:09:00,rvs,15.82
2023-08-27T08:10:00,rvs,11.83
2023-08-27T08:11:00,rvs,11.86
2023-08-27T08:12:00,rvs,12.35
2023-08-27T08:13:00,rvs,16.38
2023-08-27T08:14:00,rvs,12.13
2023-08-27T08:15:00,rvs,11.59
2023-08-27T08:16:00,rvs,11.65
2023-08-27T08:17:00,rvs,11.63
2023-08-27T08:18:00,rvs,15.79
2023-08-27T08:19:00,rvs,15.57
2023-08-27T08:20:00,rvs,15.81
2023-08-27T08:21:00,rvs,11.43
2023-08-27T08:22:00,rvs,11.43
2023-08-27T08:23:00,rvs,11.31
2023-08-27T08:24:00,rvs,11.48
2023-08-27T08:25:00,rvs,11.32
2023-08-27T08:26:00,rvs,11.27
2023-08-27T08:27:00,rvs,11.21
2023-08-27T08:28:00,rvs,11.01
2023-08-27T08:29:00,rvs,11.14
2023-08-27T08:30:00,rvs,13.10
2023-08-27T08:31:00,rvs,13.78
2023-08-27T08:32:00,rvs,14.17
2023-08-27T08:33:00,rvs,14.81
2023-08-27T08:34:00,rvs,15.48
2023-08-27T08:35:00,rvs,15.61
2023-08-27T08:36:00,rvs,31.41
2023-08-27T08:37:00,rvs,15.77
2023-08-27T08:38:00,rvs,16.05
2023-08-27T08:39:00,rvs,15.30
2023-08-27T08:40:00,rvs,15.16
2023-08-27T08:41:00,rvs,10.57
2023-08-27T08:42:00,rvs,11.10
2023-08-27T08:43:00,rvs,11.07
2023-08-27T08:44:00,rvs,10.61
2023-08-27T08:45:00,rvs,10.64
2023-08-27T08:46:00,rvs,10.62
2023-08-27T08:47:00,rvs,10.64
2023-08-27T08:48:00,rvs,10.77
2023-08-27T08:49:00,rvs,10.79
2023-08-27T08:50:00,rvs,10.87
2023-08-27T08:51:00,rvs,10.67
2023-08-27T08:52:00,rvs,10.74
2023-08-27T08:53:00,rvs,10.62
2023-08-27T08:54:00,rvs,10.63
2023-08-27T08:55:00,rvs,10.58
2023-08-27T08:56:00,rvs,10.75
2023-08-27T08:57:00,rvs,11.18
2023-08-27T08:58:00,rvs,11.21
2023-08-27T08:59:00,rvs,11.17
2023-08-27T09:00:00,rvs,11.11
2023-08-27T09:01:00,rvs,11.07
2023-08-27T09:02:00,rvs,11.09
2023-08-27T09:03:00,rvs,11.03
2023-08-27T09:04:00,rvs,10.99
2023-08-27T09:05:00,rvs,11.06
2023-08-27T09:06:00,rvs,11.08
2023-08-27T09:07:00,rvs,11.21
2023-08-27T09:08:00,rvs,11.16
2023-08-27T09:09:00,rvs,11.61
2023-08-27T09:10:00,rvs,11.53
2023-08-27T09:11:00,rvs,11.50
2023-08-27T09:12:00,rvs,11.46
2023-08-27T09:13:00,rvs,11.42
2023-08-27T09:14:00,rvs,11.36
2023-08-27T09:15:00,rvs,11.55
2023-08-27T09:16:00,rvs,11.71
2023-08-27T09:17:00,rvs,11.64
2023-08-27T09:18:00,rvs,11.11
2023-08-27T09:19:00,rvs,10.92
2023-08-27T09:20:00,rvs,10.87
2023-08-27T09:21:00,rvs,11.30
2023-08-27T09:22:00,rvs,11.42
2023-08-27T09:23:00,rvs,11.10
2023-08-27T09:24:00,rvs,11.03
2023-08-27T09:25:00,rvs,11.43
2023-08-27T09:26:00,rvs,11.17
2023-08-27T09:27:00,rvs,11.22
2023-08-27T09:28:00,rvs,11.07
2023-08-27T09:29:00,rvs,10.42
2023-08-27T09:30:00,rvs,10.40
2023-08-27T09:31:00,rvs,10.41
2023-08-27T09:32:00,rvs,10.49
2023-08-27T09:33:00,rvs,10.45
2023-08-27T09:34:00,rvs,10.53
2023-08-27T09:35:00,rvs,10.59
2023-08-27T09:36:00,rvs,10.66
2023-08-27T09:37:00,rvs,10.79
2023-08-27T09:38:00,rvs,12.94
2023-08-27T09:39:00,rvs,13.46
2023-08-27T09:40:00,rvs,13.78
2023-08-27T09:41:00,rvs,14.24
2023-08-27T09:42:00,rvs,15.05
2023-08-27T09:43:00,rvs,14.92
2023-08-27T09:44:00,rvs,15.24
2023-08-27T09:45:00,rvs,16.09
2023-08-27T09:46:00,rvs,33.91
2023-08-27T09:47:00,rvs,16.30
2023-08-27T09:48:00,rvs,11.52
2023-08-27T09:49:00,rvs,11.42
2023-08-27T09:50:00,rvs,11.27
2023-08-27T09:51:00,rvs,11.19
2023-08-27T09:52:00,rvs,11.67
2023-08-27T09:53:00,rvs,11.80
2023-08-27T09:54:00,rvs,11.81
2023-08-27T09:55:00,rvs,11.24
2023-08-27T09:56:00,rvs,11.29
2023-08-27T09:57:00,rvs,10.84
2023-08-27T09:58:00,rvs,10.80
2023-08-27T09:59:00,rvs,10.80
2023-08-27T10:00:00,rvs,10.73
2023-08-27T10:01:00,rvs,10.70
2023-08-27T10:02:00,rvs,10.65
2023-08-27T10:03:00,rvs,10.80
2023-08-27T10:04:00,rvs,10.95
2023-08-27T10:05:00,rvs,10.83
2023-08-27T10:06:00,rvs,10.73
2023-08-27T10:07:00,rvs,10.67
2023-08-27T10:08:00,rvs,10.78
2023-08-27T10:09:00,rvs,10.65
2023-08-27T10:10:00,rvs,10.83
2023-08-27T10:11:00,rvs,10.78
2023-08-27T10:12:00,rvs,11.17
2023-08-27T10:13:00,rvs,11.19
2023-08-27T10:14:00,rvs,11.18
2023-08-27T10:15:00,rvs,11.14
2023-08-27T10:16:00,rvs,11.06
2023-08-27T10:17:00,rvs,11.10
2023-08-27T10:18:00,rvs,11.06
2023-08-27T10:19:00,rvs,11.05
2023-08-27T10:20:00,rvs,11.09
2023-08-27T10:21:00,rvs,11.08
2023-08-27T10:22:00,rvs,11.08
2023-08-27T10:23:00,rvs,11.21
2023-08-27T10:24:00,rvs,11.14
2023-08-27T10:25:00,rvs,11.02
2023-08-27T10:26:00,rvs,13.14
2023-08-27T10:27:00,rvs,13.30
2023-08-27T10:28:00,rvs,13.51
2023-08-27T10:29:00,rvs,13.98
2023-08-27T10:30:00,rvs,14.54
2023-08-27T10:31:00,rvs,14.72
2023-08-27T10:32:00,rvs,14.15
2023-08-27T10:33:00,rvs,14.72
2023-08-27T10:34:00,rvs,15.27
2023-08-27T10:35:00,rvs,15.30
2023-08-27T10:36:00,rvs,10.53
2023-08-27T10:37:00,rvs,10.54
2023-08-27T10:38:00,rvs,23.59
2023-08-27T10:39:00,rvs,23.47
2023-08-27T10:40:00,rvs,23.20
2023-08-27T10:41:00,rvs,23.10
2023-08-27T10:42:00,rvs,10.78
2023-08-27T10:43:00,rvs,10.99
2023-08-27T10:44:00,rvs,10.80
2023-08-27T10:45:00,rvs,10.68
2023-08-27T10:46:00,rvs,11.26
2023-08-27T10:47:00,rvs,11.26
2023-08-27T10:48:00,rvs,11.17
2023-08-27T10:49:00,rvs,11.16
2023-08-27T10:50:00,rvs,11.23
2023-08-27T10:51:00,rvs,11.21
2023-08-27T10:52:00,rvs,11.31
2023-08-27T10:53:00,rvs,11.23
2023-08-27T10:54:00,rvs,11.25
2023-08-27T10:55:00,rvs,11.25
2023-08-27T10:56:00,rvs,11.60
2023-08-27T10:57:00,rvs,11.60
2023-08-27T10:58:00,rvs,11.29
2023-08-27T10:59:00,rvs,11.66
2023-08-27T11:00:00,rvs,11.42
2023-08-27T11:01:00,rvs,11.59
2023-08-27T11:02:00,rvs,11.38
2023-08-27T11:03:00,rvs,10.77
2023-08-27T11:04:00,rvs,11.52
2023-08-27T11:05:00,rvs,11.76
2023-08-27T11:06:00,rvs,11.49
2023-08-27T11:07:00,rvs,10.83
2023-08-27T11:08:00,rvs,11.09
2023-08-27T11:09:00,rvs,10.91
2023-08-27T11:10:00,rvs,10.98
2023-08-27T11:11:00,rvs,10.97
2023-08-27T11:12:00,rvs,11.05
2023-08-27T11:13:00,rvs,11.03
2023-08-27T11:14:00,rvs,10.99
2023-08-27T11:15:00,rvs,10.92
2023-08-27T11:16:00,rvs,10.89
2023-08-27T11:17:00,rvs,13.13
2023-08-27T11:18:00,rvs,13.30
2023-08-27T11:19:00,rvs,13.33
2023-08-27T11:20:00,rvs,13.62
2023-08-27T11:21:00,rvs,14.47
2023-08-27T11:22:00,rvs,15.19
2023-08-27T11:23:00,rvs,14.98
2023-08-27T11:24:00,rvs,14.35
2023-08-27T11:25:00,rvs,14.21
2023-08-27T11:26:00,rvs,14.29
2023-08-27T11:27:00,rvs,14.35
2023-08-27T11:28:00,rvs,14.45
2023-08-27T11:29:00,rvs,14.58
2023-08-27T11:30:00,rvs,14.87
2023-08-27T11:31:00,rvs,14.84
2023-08-27T11:32:00,rvs,14.90
2023-08-27T11:33:00,rvs,14.90
2023-08-27T11:34:00,rvs,10.66
2023-08-27T11:35:00,rvs,10.60
2023-08-27T11:36:00,rvs,10.66
2023-08-27T11:37:00,rvs,11.11
2023-08-27T11:38:00,rvs,11.25
2023-08-27T11:39:00,rvs,11.41
2023-08-27T11:40:00,rvs,10.66
2023-08-27T11:41:00,rvs,10.64
2023-08-27T11:42:00,rvs,10.65
2023-08-27T11:43:00,rvs,10.68
2023-08-27T11:44:00,rvs,10.68
2023-08-27T11:45:00,rvs,10.69
2023-08-27T11:46:00,rvs,10.77
2023-08-27T11:47:00,rvs,10.90
2023-08-27T11:48:00,rvs,10.86
2023-08-27T11:49:00,rvs,10.76
2023-08-27T11:50:00,rvs,12.99
2023-08-27T11:51:00,rvs,13.50
2023-08-27T11:52:00,rvs,13.78
2023-08-27T11:53:00,rvs,14.27
2023-08-27T11:54:00,rvs,15.49
2023-08-27T11:55:00,rvs,15.40
2023-08-27T11:56:00,rvs,15.73
2023-08-27T11:57:00,rvs,16.27
2023-08-27T11:58:00,rvs,16.61
2023-08-27T11:59:00,rvs,11.39
2023-08-27T12:00:00,rvs,11.12
2023-08-27T12:01:00,rvs,11.78
2023-08-27T12:02:00,rvs,11.82
2023-08-27T12:03:00,rvs,11.80
2023-08-27T12:04:00,rvs,11.76
2023-08-27T12:05:00,rvs,13.98
2023-08-27T12:06:00,rvs,14.62
2023-08-27T12:07:00,rvs,14.82
2023-08-27T12:08:00,rvs,17.00
2023-08-27T12:09:00,rvs,17.63
2023-08-27T12:10:00,rvs,16.89
2023-08-27T12:11:00,rvs,16.70
2023-08-27T12:12:00,rvs,16.71
2023-08-27T12:13:00,rvs,16.88
2023-08-27T12:14:00,rvs,16.41
2023-08-27T12:15:00,rvs,16.39
2023-08-27T12:16:00,rvs,11.63
2023-08-27T12:17:00,rvs,11.70
2023-08-27T12:18:00,rvs,12.09
2023-08-27T12:19:00,rvs,11.57
2023-08-27T12:20:00,rvs,11.70
2023-08-27T12:21:00,rvs,11.27
2023-08-27T12:22:00,rvs,11.32
2023-08-27T12:23:00,rvs,11.17
2023-08-27T12:24:00,rvs,10.95
2023-08-27T12:25:00,rvs,10.92
2023-08-27T12:26:00,rvs,10.91
2023-08-27T12:27:00,rvs,13.82
2023-08-27T12:28:00,rvs,13.66
2023-08-27T12:29:00,rvs,13.70
2023-08-27T12:30:00,rvs,14.17
2023-08-27T12:31:00,rvs,14.90
2023-08-27T12:32:00,rvs,15.40
2023-08-27T12:33:00,rvs,14.71
2023-08-27T12:34:00,rvs,15.30
2023-08-27T12:35:00,rvs,15.12
2023-08-27T12:36:00,rvs,11.00
2023-08-27T12:37:00,rvs,10.94
2023-08-27T12:38:00,rvs,10.83
2023-08-27T12:39:00,rvs,10.92
2023-08-27T12:40:00,rvs,10.66
2023-08-27T12:41:00,rvs,10.77
2023-08-27T12:42:00,rvs,11.42
2023-08-27T12:43:00,rvs,11.35
2023-08-27T12:44:00,rvs,11.38
2023-08-27T12:45:00,rvs,10.92
2023-08-27T12:46:00,rvs,10.99
2023-08-27T12:47:00,rvs,15.35
2023-08-27T12:48:00,rvs,15.17
2023-08-27T12:49:00,rvs,15.71
2023-08-27T12:50:00,rvs,15.62
2023-08-27T12:51:00,rvs,15.64
2023-08-27T12:52:00,rvs,15.61
2023-08-27T12:53:00,rvs,15.72
2023-08-27T12:54:00,rvs,15.57
2023-08-27T12:55:00,rvs,15.58
2023-08-27T12:56:00,rvs,15.64
2023-08-27T12:57:00,rvs,15.49
2023-08-27T12:58:00,rvs,15.42
2023-08-27T12:59:00,rvs,15.42
2023-08-27T13:00:00,rvs,15.50
2023-08-27T13:01:00,rvs,15.48
2023-08-27T13:02:00,rvs,15.45
2023-08-27T13:03:00,rvs,15.39
2023-08-27T13:04:00,rvs,15.32
2023-08-27T13:05:00,rvs,15.34
2023-08-27T13:06:00,rvs,15.27
2023-08-27T13:07:00,rvs,15.31
2023-08-27T13:08:00,rvs,15.32
2023-08-27T13:09:00,rvs,14.76
2023-08-27T13:10:00,rvs,15.39
2023-08-27T13:11:00,rvs,11.42
2023-08-27T13:12:00,rvs,11.56
2023-08-27T13:13:00,rvs,11.48
2023-08-27T13:14:00,rvs,15.19
2023-08-27T13:15:00,rvs,15.45
2023-08-27T13:16:00,rvs,11.26
2023-08-27T13:17:00,rvs,11.21
2023-08-27T13:18:00,rvs,11.30